Date,TemperatureHighF,TemperatureAvgF,TemperatureLowF,DewpointHighF,DewpointAvgF,DewpointLowF,HumidityHigh,HumidityAvg,HumidityLow,PressureMaxIn,PressureMinIn,WindSpeedMaxMPH,WindSpeedAvgMPH,GustSpeedMaxMPH,PrecipitationSumIn
2013-5-1,50.0,36.0,31.0,33.0,23.8,20.0,73,61,49,0.00,40.00,14,9,25,0.01
2013-5-2,42.0,33.6,29.0,21.0,19.5,18.0,67,56,42,0.00,40.00,11,7,19,0.00
2013-5-3,36.0,31.2,27.0,30.0,23.4,19.0,95,74,57,0.00,40.00,10,7,16,0.06
2013-5-4,35.0,32.7,30.0,34.0,31.0,28.0,97,94,91,0.00,40.00,7,5,15,0.10
2013-5-5,50.0,39.9,33.0,41.0,36.7,33.0,99,89,69,0.00,40.00,6,4,10,0.01
2013-5-6,73.0,52.4,30.0,47.0,40.3,29.0,98,69,37,0.00,40.00,8,3,15,0.00
2013-5-7,76.0,57.4,34.0,47.0,39.0,32.0,95,58,23,0.00,40.00,12,5,22,0.00
2013-5-8,77.0,57.5,38.0,50.0,42.0,35.0,93,61,25,0.00,40.00,8,4,15,0.00
2013-5-9,58.0,46.6,35.0,50.0,32.7,20.0,98,65,23,0.00,40.00,12,7,19,0.00
2013-5-10,58.0,43.3,24.0,38.0,18.3,12.0,93,45,16,0.00,40.00,12,6,21,0.00
2013-5-11,43.0,36.3,34.0,40.0,25.4,-99.9,95,68,50,0.00,40.00,18,12,33,0.04
2013-5-12,48.0,38.0,28.0,20.0,16.4,13.0,66,43,25,0.00,40.00,12,8,23,0.00
2013-5-13,56.0,40.7,20.0,32.0,22.9,16.0,86,54,25,0.00,40.00,19,8,31,0.00
2013-5-14,80.0,55.2,31.0,48.0,36.6,24.0,87,54,27,0.00,40.00,20,9,33,0.00
2013-5-15,72.0,59.5,48.0,45.0,40.5,30.0,82,53,25,0.00,40.00,15,10,32,0.00
2013-5-16,70.0,47.5,32.0,39.0,15.1,-99.9,92,53,21,0.00,40.00,8,4,12,0.00
2013-5-17,65.0,52.6,45.0,39.0,28.4,-99.9,74,48,30,0.00,40.00,14,7,21,0.00
2013-5-18,55.0,51.8,47.0,54.0,46.8,33.0,98,85,51,0.00,40.00,9,6,15,0.35
2013-5-19,61.0,54.9,50.0,59.0,54.1,50.0,100,97,91,0.00,40.00,10,6,17,0.37
2013-5-20,55.0,51.5,48.0,53.0,49.9,47.0,95,94,89,0.00,40.00,13,11,28,1.12
2013-5-21,48.0,44.9,43.0,47.0,43.8,42.0,98,96,94,0.00,40.00,11,9,22,0.74
2013-5-22,67.0,52.9,44.0,45.0,40.4,30.0,97,69,27,0.00,40.00,14,10,23,0.25
2013-5-23,60.0,48.5,38.0,39.0,26.5,22.0,70,45,24,0.00,40.00,11,7,25,0.00
2013-5-24,69.0,51.8,29.0,34.0,28.5,25.0,90,48,19,0.00,40.00,8,5,15,0.00
2013-5-25,64.0,54.6,43.0,37.0,32.8,27.0,66,44,34,0.00,40.00,13,7,20,0.00
2013-5-26,68.0,53.9,34.0,38.0,33.0,25.0,90,50,28,0.00,40.00,13,6,22,0.00
2013-5-27,69.0,56.5,37.0,41.0,35.2,25.0,81,47,31,0.00,40.00,19,8,26,0.00
2013-5-28,69.0,56.3,42.0,47.0,40.4,33.0,85,57,42,0.00,40.00,12,7,20,0.00
2013-5-29,78.0,63.3,50.0,60.0,50.0,38.0,97,64,38,0.00,40.00,10,6,21,0.26
2013-5-30,74.0,64.9,59.0,65.0,61.0,58.0,97,87,69,0.00,40.00,13,7,21,0.45
2013-5-31,79.0,65.1,57.0,61.0,56.6,49.0,96,77,39,0.00,40.00,19,10,34,0.12